Regional Weather Roundup
Issued by NWS Upton, NY

Current Version | Previous Version | Graphics & Text | Print | Product List | Glossary Off
Versions: 1 2 3 4 5 6 7 8 9 10 11 12 13 14 15 16 17 18 19 20 21 22 23 24 25 26 27 28 29 30 31 32 33 34 35 36 37 38 39 40 41 42 43 44 45 46 47 48 49 50

235
ASUS41 KOKX 181708
RWROKX

REGIONAL WEATHER ROUNDUP
NATIONAL WEATHER SERVICE NEW YORK NY
1200 PM EST WED JAN 18 2017

NOTE: "FAIR" INDICATES FEW OR NO CLOUDS BELOW 12,000 FEET WITH NO
SIGNIFICANT WEATHER AND/OR OBSTRUCTIONS TO VISIBILITY.

NYZ071-072-176-178-NJZ106-104-181800-
NEW YORK CITY METRO AREA

CITY           SKY/WX    TMP DP  RH WIND       PRES   REMARKS
Central Park   CLOUDY    40  38  93 N8        29.92F WCI  34
Wall St Helipt NOT AVBL
Bronx Bot Gard NOT AVBL
LaGuardia APRT CLOUDY    44  37  76 NE14      29.90F
Kennedy INTL   CLOUDY    41  37  86 N14       29.91F
Breezy Point   NOT AVBL
Newark/Liberty CLOUDY    41  39  93 N15       29.91F
Teterboro      CLOUDY    41  38  89 N8        29.90F FOG
$$

NYZ177-179-078>081-181800-
LONG ISLAND NEW YORK

CITY           SKY/WX    TMP DP  RH WIND       PRES   REMARKS
Jones Beach    NOT AVBL
Matinecock PT  NOT AVBL
Farmingdale    CLOUDY    40  37  89 NE10      29.90F WCI  33
MacArthur/ISP  CLOUDY    40  39  97 N9        29.89F WCI  34
Shirley        CLOUDY    40  39  97 NE9G17    29.89F WCI  34
Westhampton    CLOUDY    41  38  89 NE15      29.89F
Southampton    NOT AVBL
Bridgehampton  NOT AVBL
East Hampton   CLOUDY    39  38  95 NE9       29.88F WCI  33
Montauk          N/A     40  40 100 NE9       29.88F WCI  34
$$

NYZ052-065-067-181800-
HUDSON VALLEY

CITY           SKY/WX    TMP DP  RH WIND       PRES   REMARKS
White Plains   CLOUDY    40  37  89 N6        29.89F FOG
Newburgh       CLOUDY    37  37 100 CALM      29.94F FOG
Montgomery     CLOUDY    40  37  89 NE8       29.91F WCI  34
Poughkeepsie   CLOUDY    37  36  96 NE3       29.93F
Albany         CLOUDY    35  33  92 NE3       29.96F FOG
$$

NJZ001-105-106-008-010-013-015-019>022-104-181800-
NEW JERSEY

CITY           SKY/WX    TMP DP  RH WIND       PRES   REMARKS
Newark/Liberty CLOUDY    41  39  93 N15       29.91F
Teterboro      CLOUDY    41  38  89 N8        29.90F FOG
Caldwell       CLOUDY    40  38  93 CALM      29.92F
Somerville     CLOUDY    43  38  82 N5        29.90F
Linden         CLOUDY    41  37  88 NE5       29.92S
Sussex         CLOUDY    38  36  92 E6        29.91F WCI  33
Andover          N/A     37  35  92 NE5       29.92F WCI  33
Trenton        CLOUDY    42  40  92 N7        29.91F
Millville      LGT RAIN  47  46  97 N8        29.91S FOG
Atlantic City  CLOUDY    44  41  89 NW10      29.90F
Wrightstown    CLOUDY    41  41 100 N8        29.89S FOG
Toms River     CLOUDY    41  41 100 N9        29.91F FOG
Belmar         CLOUDY    40  40 100 N7        29.91S FOG
$$

PAZ047>061-062-071-181800-
EASTERN PENNSYLVANIA

CITY           SKY/WX    TMP DP  RH WIND       PRES   REMARKS
Philadelphia   CLOUDY    45  40  82 N8        29.93F
Allentown      CLOUDY    42  37  82 CALM      29.92F
Scranton       CLOUDY    38  38 100 W5        29.91F FOG     WCI  34
$$

CTZ002-004>006-009-010-012-RIZ004-006-007-MAZ004-011-015-181800-
SOUTHERN NEW ENGLAND
 IN CT

CITY           SKY/WX    TMP DP  RH WIND       PRES   REMARKS
Bradley INTL   DRIZZLE   36  35  96 N9        29.94F FOG     WCI  29
Hartford       CLOUDY    37  36  96 N8        29.93F WCI  31
Danbury        CLOUDY    38  35  89 NE7       29.92F WCI  33
Wtrbury/Oxford CLOUDY    36  32  87 NE10      29.91F FOG     WCI  28
Bridgeport     CLOUDY    42  36  79 NE12      29.90F
Meriden        CLOUDY    39  35  86 VRB6      29.92F WCI  35
New Haven      CLOUDY    40  37  89 N10       29.90F WCI  33
Chester        CLOUDY    39  37  93 NE8       29.89F WCI  34
Groton         CLOUDY    42  38  85 NE13      29.88F
Wilimantic     CLOUDY    40  38  93 N7        29.92F

 IN RI

CITY           SKY/WX    TMP DP  RH WIND       PRES   REMARKS
Providence     LGT RAIN  40  38  93 N13       29.91F FOG     WCI  32
Block Island   NOT AVBL
Westerly       CLOUDY    41  37  86 N7        29.89F
 IN MA

CITY           SKY/WX    TMP DP  RH WIND       PRES   REMARKS
Boston         LGT RAIN  39  39 100 E16       29.96F FOG     WCI  30
Worcester      FOG       31  30  96 N12       29.91F VSB 1/4 WCI  22
Westfield      CLOUDY    35  35 100 N9        29.95F FOG     WCI  28
Provincetown   CLOUDY    40  39  97 E17       29.92F FOG     WCI  31
Nantucket      LGT RAIN  43  41  93 E15G26    29.85F FOG
$$

ANZ330-335-338-340-345-350-353-355-181800-
COASTAL MARINE OBSERVATIONS


STATION/POSITION TIME  SKY/WX   TEMP    WIND        PRES    VSBY  WAVE
                                AIR SEA DIR/SP/G                  HT/PER
                 (UTC)          (F)     (DEG/KT/KT) (MB)    (MI)  (FT/S)
NY HARB ENTRANCE 1550            41 44   20/ 14/ 17 1012.7          4/ 6
20 S FIRE ISLAND 1650            42 45   30/ 19/ 21 1010.7          5/ 6
GREAT SOUTH BAY  NOT AVBL
23 SSW MONTAUK P 1550            43 47   40/ 21/ 25 1011.8          7/ 7
15 E BARNEGAT LI 1630               46                N/A           4/ 6
HUDSON CANYON    1550            52 53              1009.5          4/ 6
KINGS POINT      1642            39 38              1012.8
EXECUTION ROCKS  1645            40      10/  8/ 12   N/A
CENTRAL LI SOUND 1615            40      40/ 12/ 16   N/A           2/ 6
EASTERN LI SOUND NOT AVBL
ROBBINS REEF     1642            40      10/ 11/ 12 1012.8
$$


>>>>>>>>>>>>>>>>>>>>>>>>>>>> KEY <<<<<<<<<<<<<<<<<<<<<<<<<<<
>                                                          <
>     SKY/WX - Sky Condition/Present Weather               <
>     TMP    - Temperature in Fahrenheit                   <
>     DP     - Dew Point in Fahrenheit                     <
>     RH     - Relative Humidity in Percent                <
>     WIND   - Direction (from) and Speed in MPH           <
>     PRES   - Mean Sea Level Pressure (inches of Hg)      <
>     WCI    - Wind Chill Index                            <
>     VSB    - VISIBILITY IN MILES                         <
>     HX     - HEAT INDEX                                  <
>     TC     - TEMPERATURE IN CELSIUS                      <
>     VRB    - VARIABLE WIND DIRECTION                     <
>                                                          <
>>>>>>>>>>>>>>>>>>>>>>>>>>>> KEY <<<<<<<<<<<<<<<<<<<<<<<<<<<




USA.gov is the U.S. government's official web portal to all federal, state and local government web resources and services.